Location: Peterborough
(44.3091°N, 78.3197°W)
Time: 16:55:32
(UTC-04:00)

Explorer 7 - Pass Details

Date: 29 March 2023
Orbit: 477 x 653 km, 50.3° (Epoch: 04 June)

Event Time Altitude Azimuth Distance (km) Brightness Sun altitude
Rises 23:08:56 0° 290° (WNW) 2,723 11.1 -34.0°
Enters shadow 23:11:19 - 276° (W) 1,894 10.0 -34.3°
Reaches altitude 10° 23:11:40 10° 273° (W) 1,788 - -34.3°
Maximum altitude 23:14:37 20° 226° (SW) 1,245 - -34.7°
Drops below altitude 10° 23:17:29 10° 178° (S) 1,708 - -35.0°
Sets 23:20:02 0° 161° (SSE) 2,561 - -35.3°
